Regional Weather Roundup
Issued by NWS

Home | Current Version | Previous Version | Text Only | Print | Product List | Glossary On
Versions: 1 2 3 4 5 6 7 8 9 10 11 12 13 14 15 16 17 18 19 20 21 22 23 24 25 26 27 28
000
ASUS45 KCYS 292110
RWRWY

WYOMING REGIONAL WEATHER ROUNDUP
NATIONAL WEATHER SERVICE CHEYENNE WY
300 PM MDT MON MAY 29 2017

NOTE:  "FAIR" INDICATES FEW OR NO CLOUDS BELOW 12,000 FEET
WITH NO SIGNIFICANT WEATHER AND/OR OBSTRUCTIONS TO VISIBILITY.

WYZ001-292200-
YELLOWSTONE NATIONAL PARK

CITY           SKY/WX    TMP DP  RH WIND       PRES   REMARKS
LK YELLOWSTONE   N/A     60  27  28 VRB3      30.35S
W YELLOWSTONE  NOT AVBL

$$
WYZ002>013-054>058-071-098>099-292200-
NORTHERN WYOMING

CITY           SKY/WX    TMP DP  RH WIND       PRES   REMARKS
JACKSON        MOSUNNY   66  30  26 CALM      30.25F
CODY           FAIR      67  38  34 NE12G20   30.23F
GREYBULL       FAIR      74  33  22 N12G20    30.15F
WORLAND        FAIR      74  34  23 N12       30.17F
SHERIDAN       FAIR      69  33  26 N24G30    30.20F
BUFFALO        FAIR      66  32  28 N25G37    30.21F
GILLETTE       FAIR      66  32  28 N16G29    30.18F
HULETT         FAIR      63  28  27 NW12G26   30.19F
NEWCASTLE      FAIR      64  18  16 NW20G29   30.18F

$$
WYZ014>020-022>026-101>103-292200-
CENTRAL WYOMING

CITY           SKY/WX    TMP DP  RH WIND       PRES   REMARKS
BIG PINEY      FAIR      66  34  30 SW12      30.28F
PINEDALE       MOCLDY    63  30  29 N5        30.28F
DUBOIS         MOCLDY    63  27  25 S8G18     30.26F
LANDER         FAIR      69  40  34 N5        30.21F
RIVERTON       FAIR      66  36  32 CALM      30.23F
CASPER         FAIR      67  34  29 NW9       30.21F
DOUGLAS        FAIR      68  35  29 N13       30.21F

$$
WYZ021-027>030-104>119-292200-
SOUTHERN WYOMING

CITY           SKY/WX    TMP DP  RH WIND       PRES   REMARKS
EVANSTON       FAIR      68  32  26 VRB7      30.26F
KEMMERER         N/A     66  28  24 E3        30.29F
FORT BRIDGER   FAIR      68  28  22 W3        30.30S
ROCK SPRINGS   FAIR      65  32  29 NE12      30.25F
DIXON            N/A     66  32  27 NE10      30.26F
RAWLINS        LGT RAIN  59  30  33 VRB7G20   30.28S
SARATOGA       FAIR      64  32  29 N16G24    30.28F
LARAMIE        PTSUNNY   57  38  48 SW18      30.28S
CHEYENNE       CLOUDY    60  39  45 MISG      30.24F
TORRINGTON     FAIR      71  29  21 N18G26    30.15F
PINE BLUFFS    FAIR      68  37  32 N12       30.21F

$$




USA.gov is the U.S. government's official web portal to all federal, state and local government web resources and services.